Weather History for KICT - February, 2014

Change the Weather History Date:

Thursday, February 27, 2014

  Actual Average Record
Temperature  
Mean Temperature 33 °F 41 °F  
Max Temperature 49 °F 52 °F 78 °F (1976)
Min Temperature 16 °F 30 °F 1 °F (1890)
Degree Days  
Heating Degree Days 32 24  
Month to date heating degree days 922 755  
Since 1 July heating degree days 3896 3615  
Cooling Degree Days 0 0  
Month to date cooling degree days 0 0  
Year to date cooling degree days 0 0  
Moisture  
Dew Point 13 °F    
Average Humidity 48    
Maximum Humidity 74    
Minimum Humidity 21    
Precipitation  
Precipitation 0.00 in 0.05 in 1.93 in (1918)
Month to date precipitation 0.84 1.13  
Year to date precipitation 0.97 1.96  
Snow  
Snow 0.00 in 0.10 in 4.00 in (1900)
Month to date snowfall 13.1 3.1  
Since 1 July snowfall 19.5 12.3  
Snow Depth 0.00 in    
Sea Level Pressure  
Sea Level Pressure 29.97 in    
Wind  
Wind Speed 10 mph (ESE)    
Max Wind Speed 21 mph    
Max Gust Speed 25 mph    
Visibility 10 miles    
Events      
T = Trace of Precipitation, MM = Missing Value Source: NWS Daily Summary

Daily Weather History Graph

Daily Weather History Graph

Search for Another Location

Airport or City:

Trip Planner

Search our weather history database for the weather conditions in past years. The results will help you decide how hot, cold, wet, or windy it might be!

Date:

Astronomy

Feb. 27, 2014 Rise Set
Actual Time 7:03 AM CST 6:21 PM CST
Civil Twilight 6:37 AM CST 6:47 PM CST
Nautical Twilight 6:07 AM CST 7:18 PM CST
Astronomical Twilight 5:36 AM CST 7:48 PM CST
Moon 5:35 AM CST (2/27) 4:49 PM CST (2/27)
Length of Visible Light 12h 10m
Length of Day
11h 17m
Waning Crescent, 4% of the Moon is Illuminated
Feb 27
Waning Crescent
Mar 1
New
Mar 8
First Quarter
Mar 16
Full
Mar 23
Last Quarter

Hourly Weather History & Observations

Time (CST) Temp. Windchill Dew Point Humidity Pressure Visibility Wind Dir Wind Speed Gust Speed Precip Events Conditions
12:53 AM 19.9 °F 12.1 °F 12.0 °F 71% 30.09 in 10.0 mi West 5.8 mph - N/A   Clear
1:53 AM 21.0 °F - 12.0 °F 68% 30.08 in 10.0 mi Calm Calm - N/A   Clear
2:53 AM 19.0 °F 12.3 °F 12.0 °F 74% 30.08 in 10.0 mi NW 4.6 mph - N/A   Clear
3:53 AM 23.0 °F 13.9 °F 14.0 °F 68% 30.07 in 10.0 mi NNW 8.1 mph - N/A   Clear
4:53 AM 19.9 °F 14.9 °F 12.9 °F 74% 30.08 in 10.0 mi NW 3.5 mph - N/A   Clear
5:53 AM 17.1 °F - 10.9 °F 77% 30.10 in 10.0 mi Calm Calm - N/A   Clear
6:53 AM 19.9 °F 13.4 °F 12.9 °F 74% 30.11 in 10.0 mi North 4.6 mph - N/A   Clear
7:53 AM 24.1 °F 17.0 °F 15.1 °F 69% 30.11 in 10.0 mi NNW 5.8 mph - N/A   Clear
8:53 AM 28.9 °F 18.2 °F 16.0 °F 58% 30.11 in 10.0 mi NE 13.8 mph - N/A   Partly Cloudy
9:53 AM 34.0 °F 25.5 °F 16.0 °F 48% 30.09 in 10.0 mi ENE 11.5 mph - N/A   Partly Cloudy
10:53 AM 37.9 °F 30.5 °F 16.0 °F 41% 30.09 in 10.0 mi ESE 11.5 mph - N/A   Partly Cloudy
11:53 AM 42.1 °F 36.1 °F 15.1 °F 34% 30.06 in 10.0 mi East 10.4 mph - N/A   Scattered Clouds
12:53 PM 44.1 °F 39.0 °F 12.9 °F 28% 30.02 in 10.0 mi ESE 9.2 mph - N/A   Mostly Cloudy
1:53 PM 46.0 °F 40.6 °F 12.0 °F 25% 29.97 in 10.0 mi SSE 11.5 mph 19.6 mph N/A   Mostly Cloudy
2:53 PM 46.9 °F - 10.0 °F 22% 29.92 in 10.0 mi SSE 17.3 mph - N/A   Mostly Cloudy
3:53 PM 48.9 °F - 10.9 °F 22% 29.88 in 10.0 mi SE 15.0 mph - N/A   Scattered Clouds
4:53 PM 48.9 °F - 10.0 °F 21% 29.87 in 10.0 mi SE 13.8 mph - N/A   Partly Cloudy
5:53 PM 46.0 °F 40.6 °F 9.0 °F 22% 29.87 in 10.0 mi SSE 11.5 mph - N/A   Mostly Cloudy
6:53 PM 42.1 °F 35.7 °F 10.0 °F 27% 29.85 in 10.0 mi SE 11.5 mph - N/A   Mostly Cloudy
7:53 PM 41.0 °F 33.9 °F 10.9 °F 29% 29.83 in 10.0 mi ESE 12.7 mph - N/A   Mostly Cloudy
8:53 PM 39.9 °F 32.1 °F 12.0 °F 32% 29.82 in 10.0 mi ESE 13.8 mph - N/A   Scattered Clouds
9:53 PM 37.9 °F 30.0 °F 12.0 °F 35% 29.82 in 10.0 mi ESE 12.7 mph - N/A   Scattered Clouds
10:53 PM 37.9 °F 30.0 °F 14.0 °F 38% 29.80 in 10.0 mi SE 12.7 mph - N/A   Mostly Cloudy
11:53 PM 37.0 °F 28.1 °F 15.1 °F 41% 29.77 in 10.0 mi SE 15.0 mph - N/A   Scattered Clouds